EW1994 Weather Reports


Display with metric or nautical units.
time (UTC)temp
F
wind
direction
speed
MPH
gust
MPH
rain 1hr
in
rain 24hr
in
rain mn
in
humidity
%
barometer
mb
20260506084523 50 331 0.0 0.0 0.00 0.00 0.00 91 1017.6
20260506083027 51 331 0.0 0.0 0.00 0.00 0.00 91 1017.4
20260506081525 51 331 0.0 0.0 0.00 0.00 0.00 91 1017.3
20260506073023 51 331 0.0 0.0 0.00 0.00 0.00 91 1017.2
20260506071526 51 331 0.0 0.0 0.00 0.00 0.00 90 1017.2
20260506061523 52 331 0.0 0.0 0.00 0.00 0.00 90 1016.6
20260506051412 52 140 0.0 1.0 0.00 0.00 0.00 89 1017.3
20260506051409 51 140 0.0 2.0 0.00 0.00 0.00 90 1017.0
20260506051400 50 73 0.0 1.0 0.00 0.00 0.00 90 1016.9
20260506051355 50 360 0.0 0.0 0.00 0.00 0.00 90 1017.2
20260506051348 50 360 0.0 0.0 0.00 0.00 0.00 90 1017.1
20260506051342 49 360 0.0 0.0 0.00 0.00 0.00 91 1017.3
20260506051337 49 360 0.0 0.0 0.00 0.00 0.00 91 1017.1
20260506051332 49 360 0.0 0.0 0.00 0.00 0.00 91 1017.3
20260506051327 49 360 0.0 0.0 0.00 0.00 0.00 90 1017.3
20260506051319 48 360 0.0 0.0 0.00 0.00 0.00 90 1017.0
20260506051313 48 360 0.0 0.0 0.00 0.00 0.00 90 1017.0
20260506051307 48 360 0.0 0.0 0.00 0.00 0.00 90 1017.3
20260506051303 48 360 0.0 0.0 0.00 0.00 0.00 90 1017.5
20260506051256 48 360 0.0 0.0 0.00 0.00 0.00 90 1017.7
20260506051250 48 360 0.0 0.0 0.00 0.00 0.00 90 1017.9
20260506051244 48 360 0.0 0.0 0.00 0.00 0.00 90 1017.8
20260506051239 48 360 0.0 0.0 0.00 0.00 0.00 89 1017.4
20260506051232 48 360 0.0 0.0 0.00 0.00 0.00 89 1017.2
20260506051227 48 360 0.0 0.0 0.00 0.00 0.00 89 1017.0
20260506051220 48 360 0.0 0.0 0.00 0.00 0.00 89 1017.0
20260506051215 48 360 0.0 0.0 0.00 0.00 0.00 89 1016.8
20260506051211 48 360 0.0 0.0 0.00 0.00 0.00 88 1017.0
20260506051202 49 360 0.0 0.0 0.00 0.00 0.00 88 1017.1
20260506051156 49 360 0.0 0.0 0.00 0.00 0.00 88 1017.0
20260506051150 49 360 0.0 0.0 0.00 0.00 0.00 88 1017.1
20260506051146 49 360 0.0 0.0 0.00 0.00 0.00 88 1016.9
20260506051139 50 360 0.0 0.0 0.00 0.00 0.00 88 1017.1
20260506051133 50 360 0.0 0.0 0.00 0.00 0.00 88 1017.0
20260506051127 50 360 0.0 0.0 0.00 0.00 0.00 88 1017.2
20260506051121 51 360 0.0 0.0 0.00 0.00 0.00 87 1017.3
20260506051115 51 360 0.0 0.0 0.00 0.00 0.00 86 1017.2
20260506051108 51 360 0.0 0.0 0.00 0.00 0.00 84 1017.1
20260506051105 52 360 0.0 0.0 0.00 0.00 0.00 83 1016.8
20260506051056 51 360 0.0 0.0 0.00 0.00 0.00 84 1017.1
20260506051051 51 360 0.0 0.0 0.00 0.00 0.00 83 1017.0
20260506051044 52 360 0.0 0.0 0.00 0.00 0.00 82 1016.8
20260506051040 52 360 0.0 0.0 0.00 0.00 0.00 81 1016.9
20260506051033 52 360 0.0 0.0 0.00 0.00 0.00 82 1016.5
20260506051030 53 360 0.0 0.0 0.00 0.00 0.00 81 1016.4
20260506051024 53 360 0.0 0.0 0.00 0.00 0.00 80 1016.5
20260506051014 54 360 0.0 0.0 0.00 0.00 0.00 80 1016.4
20260506051008 54 360 0.0 0.0 0.00 0.00 0.00 81 1016.2
20260506050956 55 360 0.0 0.0 0.00 0.00 0.00 78 1015.8
20260506050952 56 360 0.0 0.0 0.00 0.00 0.00 78 1016.0
20260506050948 57 360 0.0 1.0 0.00 0.00 0.00 76 1015.9
20260506050942 57 360 0.0 1.0 0.00 0.00 0.00 74 1015.7
20260506050937 58 360 0.0 2.0 0.00 0.00 0.00 75 1015.3
20260506050931 60 97 0.0 1.0 0.00 0.00 0.00 67 1015.8
20260506050925 61 97 0.0 3.0 0.00 0.00 0.00 67 1015.6
20260506050918 62 333 0.0 1.0 0.00 0.00 0.00 69 1015.1
20260506050912 63 333 0.0 0.0 0.00 0.00 0.00 66 1015.0
20260506050909 64 333 0.0 1.0 0.00 0.00 0.00 67 1014.9
20260506050902 65 332 0.0 2.0 0.00 0.00 0.00 65 1015.2
20260506050857 67 105 0.0 1.0 0.00 0.00 0.00 65 1015.0
20260506050848 68 105 0.0 2.0 0.00 0.00 0.00 61 1014.9
20260506050843 68 105 0.0 3.0 0.00 0.00 0.00 58 1014.7
20260506050837 70 130 0.0 2.0 0.00 0.00 0.00 55 1014.7
20260506050831 70 128 0.0 5.0 0.00 0.00 0.00 51 1014.6
20260506050825 70 114 0.0 1.0 0.00 0.00 0.00 54 1014.7
20260506050818 71 115 0.0 4.0 0.00 0.00 0.00 52 1014.6
20260506050813 71 128 0.0 1.0 0.00 0.00 0.00 55 1014.7
20260506050808 71 128 0.0 3.0 0.00 0.00 0.00 53 1014.6
20260506050802 71 65 0.0 3.0 0.00 0.00 0.00 52 1014.8
20260506050755 71 69 0.0 2.0 0.00 0.00 0.00 55 1014.9
20260506050751 71 28 0.0 4.0 0.00 0.00 0.00 57 1015.0
20260506050744 71 294 0.0 3.0 0.00 0.00 0.00 54 1015.2
20260506050741 72 72 0.0 3.0 0.00 0.00 0.00 54 1015.2
20260506050733 71 57 1.0 3.0 0.00 0.00 0.00 52 1015.3
20260506050727 72 213 0.0 6.0 0.00 0.00 0.00 55 1015.4
20260506050723 71 73 0.0 2.0 0.00 0.00 0.00 56 1015.5
20260506050712 71 17 0.0 3.0 0.00 0.00 0.00 55 1015.7
20260506050702 71 360 0.0 4.0 0.00 0.00 0.00 53 1015.7
20260506050655 71 215 0.0 3.0 0.00 0.00 0.00 54 1015.7
20260506050649 70 63 0.0 3.0 0.00 0.00 0.00 56 1015.8
20260506050644 70 92 0.0 3.0 0.00 0.00 0.00 57 1015.8
20260506050639 70 241 0.0 3.0 0.00 0.00 0.00 58 1016.0
20260506050633 69 121 0.0 3.0 0.00 0.00 0.00 56 1015.9
20260506050629 69 229 0.0 3.0 0.00 0.00 0.00 59 1016.0
20260506050621 69 46 0.0 2.0 0.00 0.00 0.00 57 1016.0
20260506050615 68 40 1.0 3.0 0.00 0.00 0.00 57 1016.2
20260506050611 67 205 0.0 3.0 0.00 0.00 0.00 63 1016.5
20260506050600 68 139 1.0 4.0 0.00 0.00 0.00 58 1016.7
20260506050555 66 22 0.0 3.0 0.00 0.00 0.00 65 1016.8
20260506050548 65 103 0.0 3.0 0.00 0.00 0.00 65 1016.9
20260506050545 64 84 0.0 2.0 0.00 0.00 0.00 67 1017.1
20260506050538 63 108 1.0 3.0 0.00 0.00 0.00 67 1017.3
20260506050529 63 96 0.0 2.0 0.00 0.00 0.00 67 1017.4
20260506050526 61 95 0.0 1.0 0.00 0.00 0.00 71 1017.5
20260506050519 60 95 0.0 1.0 0.00 0.00 0.00 71 1017.6
20260506050513 59 198 0.0 1.0 0.00 0.00 0.00 75 1017.6
20260506050509 58 200 0.0 3.0 0.00 0.00 0.00 78 1017.7
20260506050501 57 96 0.0 2.0 0.00 0.00 0.00 84 1017.8
20260506050455 56 67 0.0 2.0 0.00 0.00 0.00 86 1017.9
20260506050451 54 67 0.0 2.0 0.00 0.00 0.00 89 1017.9
20260506050444 51 67 0.0 1.0 0.00 0.00 0.00 92 1017.8
20260506050437 50 67 0.0 0.0 0.00 0.00 0.00 91 1017.8
20260506050430 49 67 0.0 0.0 0.00 0.00 0.00 92 1017.6
20260506050426 48 67 0.0 0.0 0.00 0.00 0.00 91 1017.6
20260506050420 48 67 0.0 0.0 0.00 0.00 0.00 91 1017.5
20260506050412 47 67 0.0 0.0 0.00 0.00 0.00 91 1017.4
20260506050355 47 67 0.0 0.0 0.00 0.00 0.00 91 1017.3
20260506043508 47 67 0.0 0.0 0.00 0.00 0.00 91 1017.1
20260506032950 47 67 0.0 0.0 0.00 0.00 0.00 91 1017.0
20260506022242 47 67 0.0 0.0 0.00 0.00 0.00 91 1016.9
20260506013540 47 67 0.0 0.0 0.00 0.00 0.00 90 1016.8
20260506001216 48 67 0.0 0.0 0.00 0.00 0.00 91 1016.8
20260505225535 48 67 0.0 0.0 0.00 0.00 0.00 90 1016.9
20260505214438 48 67 0.0 0.0 0.00 0.00 0.00 90 1016.8
20260505204335 48 67 0.0 0.0 0.00 0.00 0.00 90 1016.7
20260505192107 48 67 0.0 0.0 0.00 0.00 0.00 90 1016.7
20260505174125 48 67 0.0 0.0 0.00 0.00 0.00 90 1016.7
20260505163101 49 67 0.0 0.0 0.00 0.00 0.00 90 1016.6
20260505150530 49 67 0.0 0.0 0.00 0.00 0.00 90 1016.6
20260505122141 49 67 0.0 0.0 0.00 0.00 0.00 89 1016.5
20260505111502 49 67 0.0 0.0 0.00 0.00 0.00 89 1016.5
20260505095840 50 67 0.0 0.0 0.00 0.00 0.00 89 1016.5